ARG1985 SAVT-SAEZ

Flight info

Callsign ARG1985
Flight time 1h 29m
Altitude 37000
Route LOMUS2K LOMUS UT693 BCA UW22 VALOS VALOS8U
Aircraft B738/M-SDE2E3FGHIRWXY/LB1

Departure

Time 2026-05-06 02:40
Airport Almirante Marco Andres Zar Airport (SAVT)

Arrival

Time 2026-05-06 04:09
Airport Ezeiza International Airport - Ministro Pistarini (SAEZ)
Time Latitude Longitude Altitude Speed Heading
2026-05-06 02:11 -43.20980 -65.28187 115 ft 0 kts 300°
2026-05-06 02:29 -43.20989 -65.28167 118 ft 4 kts 298°
2026-05-06 02:30 -43.21002 -65.28135 115 ft 4 kts 306°
2026-05-06 02:30 -43.21019 -65.28112 117 ft 2 kts 338°
2026-05-06 02:30 -43.21034 -65.28105 116 ft 0 kts 340°
2026-05-06 02:35 -43.21033 -65.28105 116 ft 1 kts 339°
2026-05-06 02:35 -43.21028 -65.28182 117 ft 13 kts 252°
2026-05-06 02:36 -43.21056 -65.28284 115 ft 9 kts 250°
2026-05-06 02:36 -43.21091 -65.28339 115 ft 8 kts 183°
2026-05-06 02:36 -43.21145 -65.28316 118 ft 8 kts 160°
2026-05-06 02:36 -43.21193 -65.28343 118 ft 9 kts 240°
2026-05-06 02:37 -43.21220 -65.28436 117 ft 12 kts 249°
2026-05-06 02:37 -43.21249 -65.28536 116 ft 11 kts 247°
2026-05-06 02:37 -43.21306 -65.28586 116 ft 10 kts 175°
2026-05-06 02:37 -43.21368 -65.28557 118 ft 9 kts 159°
2026-05-06 02:38 -43.21420 -65.28516 120 ft 9 kts 141°
2026-05-06 02:38 -43.21441 -65.28454 117 ft 4 kts 70°
2026-05-06 02:39 -43.21437 -65.28438 117 ft 8 kts 70°
2026-05-06 02:39 -43.21329 -65.28045 120 ft 82 kts 69°
2026-05-06 02:40 -43.21037 -65.26987 120 ft 149 kts 69°
2026-05-06 02:40 -43.20643 -65.25578 638 ft 166 kts 68°
2026-05-06 02:40 -43.20308 -65.24375 1287 ft 172 kts 68°
2026-05-06 02:41 -43.20216 -65.24040 1471 ft 172 kts 68°
2026-05-06 02:41 -43.19803 -65.22516 2296 ft 173 kts 67°
2026-05-06 02:41 -43.19798 -65.22498 2304 ft 173 kts 67°
2026-05-06 02:43 -43.19391 -65.20984 2888 ft 187 kts 67°
2026-05-06 02:43 -43.18890 -65.19189 3156 ft 214 kts 66°
2026-05-06 02:44 -43.18295 -65.17281 3556 ft 227 kts 56°
2026-05-06 02:44 -43.17292 -65.15562 4044 ft 237 kts 42°
2026-05-06 02:44 -43.15964 -65.14077 4508 ft 253 kts 26°
2026-05-06 02:44 -43.14323 -65.13191 5349 ft 255 kts 17°
2026-05-06 02:45 -43.12628 -65.12413 6189 ft 259 kts 17°
2026-05-06 02:45 -43.10911 -65.11632 6974 ft 264 kts 17°
2026-05-06 02:45 -43.09148 -65.10824 7730 ft 270 kts 16°
2026-05-06 02:45 -43.07387 -65.09846 8490 ft 277 kts 24°
2026-05-06 02:46 -43.05654 -65.08613 9273 ft 283 kts 26°
2026-05-06 02:46 -43.03946 -65.07339 10029 ft 289 kts 26°
2026-05-06 02:46 -43.02165 -65.06005 10447 ft 307 kts 26°
2026-05-06 02:46 -43.00232 -65.04582 10643 ft 331 kts 25°
2026-05-06 02:47 -42.98238 -65.03144 11100 ft 342 kts 25°
2026-05-06 02:47 -42.96146 -65.01636 11808 ft 347 kts 24°
2026-05-06 02:47 -42.94034 -65.00114 12601 ft 349 kts 24°
2026-05-06 02:47 -42.91904 -64.98579 13381 ft 353 kts 24°
2026-05-06 02:48 -42.89754 -64.97031 14061 ft 357 kts 23°
2026-05-06 02:48 -42.87573 -64.95461 14676 ft 362 kts 23°
2026-05-06 02:48 -42.85361 -64.93870 15284 ft 368 kts 23°
2026-05-06 02:48 -42.83107 -64.92250 15896 ft 373 kts 23°
2026-05-06 02:49 -42.80833 -64.90617 16515 ft 378 kts 23°
2026-05-06 02:49 -42.78536 -64.88968 17112 ft 383 kts 22°
2026-05-06 02:49 -42.76201 -64.87294 17709 ft 388 kts 22°
2026-05-06 02:49 -42.73822 -64.85588 18293 ft 393 kts 22°
2026-05-06 02:50 -42.71428 -64.83873 18827 ft 397 kts 22°
2026-05-06 02:50 -42.69019 -64.82148 19452 ft 398 kts 22°
2026-05-06 02:50 -42.66596 -64.80414 20011 ft 401 kts 22°
2026-05-06 02:50 -42.64143 -64.78662 20538 ft 405 kts 22°
2026-05-06 02:51 -42.61681 -64.76905 21064 ft 408 kts 21°
2026-05-06 02:51 -42.59196 -64.75133 21599 ft 411 kts 21°
2026-05-06 02:51 -42.56692 -64.73349 22129 ft 414 kts 21°
2026-05-06 02:51 -42.54160 -64.71547 22644 ft 417 kts 21°
2026-05-06 02:52 -42.51621 -64.69743 23138 ft 420 kts 21°
2026-05-06 02:52 -42.49058 -64.67922 23604 ft 423 kts 21°
2026-05-06 02:52 -42.46489 -64.66097 24101 ft 423 kts 21°
2026-05-06 02:52 -42.43920 -64.64274 24573 ft 424 kts 20°
2026-05-06 02:53 -42.41331 -64.62439 24975 ft 427 kts 20°
2026-05-06 02:53 -42.38731 -64.60599 25371 ft 429 kts 20°
2026-05-06 02:53 -42.36146 -64.58772 25761 ft 432 kts 20°
2026-05-06 02:53 -42.33517 -64.56915 26163 ft 434 kts 20°
2026-05-06 02:54 -42.30867 -64.55045 26552 ft 436 kts 19°
2026-05-06 02:54 -42.28213 -64.53174 26931 ft 438 kts 19°
2026-05-06 02:54 -42.25544 -64.51294 27262 ft 440 kts 19°
2026-05-06 02:54 -42.22859 -64.49406 27571 ft 444 kts 19°
2026-05-06 02:55 -42.20138 -64.47494 27897 ft 447 kts 19°
2026-05-06 02:55 -42.17413 -64.45580 28259 ft 449 kts 19°
2026-05-06 02:55 -42.14684 -64.43664 28615 ft 451 kts 19°
2026-05-06 02:55 -42.11933 -64.41735 28951 ft 453 kts 19°
2026-05-06 02:56 -42.09182 -64.39808 29277 ft 455 kts 19°
2026-05-06 02:56 -42.06414 -64.37872 29593 ft 457 kts 18°
2026-05-06 02:56 -42.03629 -64.35925 29903 ft 459 kts 18°
2026-05-06 02:56 -42.00838 -64.33977 30141 ft 462 kts 18°
2026-05-06 02:57 -41.98011 -64.32005 30359 ft 464 kts 18°
2026-05-06 02:57 -41.95182 -64.30034 30627 ft 465 kts 18°
2026-05-06 02:57 -41.92351 -64.28062 30918 ft 466 kts 18°
2026-05-06 02:57 -41.89524 -64.26092 31281 ft 464 kts 18°
2026-05-06 02:58 -41.86700 -64.24125 31687 ft 462 kts 17°
2026-05-06 02:58 -41.83906 -64.22183 32068 ft 460 kts 17°
2026-05-06 02:58 -41.81105 -64.20239 32404 ft 459 kts 17°
2026-05-06 02:58 -41.78317 -64.18308 32713 ft 458 kts 17°
2026-05-06 02:59 -41.75531 -64.16379 33128 ft 455 kts 17°
2026-05-06 02:59 -41.72772 -64.14470 33506 ft 453 kts 17°
2026-05-06 02:59 -41.70017 -64.12568 33824 ft 452 kts 17°
2026-05-06 02:59 -41.67264 -64.10670 34093 ft 452 kts 16°
2026-05-06 03:00 -41.64503 -64.08770 34304 ft 452 kts 17°
2026-05-06 03:00 -41.61743 -64.06872 34477 ft 454 kts 17°
2026-05-06 03:00 -41.58974 -64.04970 34653 ft 455 kts 17°
2026-05-06 03:00 -41.56200 -64.03065 34778 ft 457 kts 17°
2026-05-06 03:01 -41.53406 -64.01149 34912 ft 459 kts 17°
2026-05-06 03:01 -41.50606 -63.99228 35112 ft 459 kts 17°
2026-05-06 03:01 -41.47805 -63.97307 35339 ft 459 kts 17°
2026-05-06 03:01 -41.45011 -63.95392 35531 ft 460 kts 17°
2026-05-06 03:02 -41.42206 -63.93474 35688 ft 461 kts 17°
2026-05-06 03:02 -41.39381 -63.91544 35876 ft 462 kts 17°
2026-05-06 03:02 -41.36572 -63.89625 36068 ft 462 kts 17°
2026-05-06 03:02 -41.33746 -63.87698 36205 ft 463 kts 17°
2026-05-06 03:03 -41.30967 -63.85804 36409 ft 463 kts 17°
2026-05-06 03:03 -41.28137 -63.83878 36613 ft 463 kts 17°
2026-05-06 03:03 -41.25313 -63.81958 36775 ft 464 kts 17°
2026-05-06 03:03 -41.22483 -63.80036 36903 ft 465 kts 17°
2026-05-06 03:04 -41.19636 -63.78106 36963 ft 468 kts 17°
2026-05-06 03:04 -41.13915 -63.74227 36959 ft 466 kts 17°
2026-05-06 03:05 -41.08254 -63.70391 36969 ft 462 kts 17°
2026-05-06 03:05 -41.02622 -63.66590 36966 ft 459 kts 17°
2026-05-06 03:06 -40.97019 -63.62819 36988 ft 462 kts 17°
2026-05-06 03:06 -40.91324 -63.58995 36990 ft 469 kts 17°
2026-05-06 03:07 -40.85551 -63.55129 36984 ft 475 kts 17°
2026-05-06 03:07 -40.79706 -63.51217 36987 ft 480 kts 17°
2026-05-06 03:08 -40.73831 -63.47288 36973 ft 482 kts 17°
2026-05-06 03:08 -40.67924 -63.43344 36962 ft 483 kts 17°
2026-05-06 03:09 -40.62017 -63.39408 36964 ft 483 kts 16°
2026-05-06 03:09 -40.56105 -63.35479 36973 ft 483 kts 16°
2026-05-06 03:10 -40.50210 -63.31570 36982 ft 482 kts 16°
2026-05-06 03:10 -40.44299 -63.27658 36979 ft 482 kts 16°
2026-05-06 03:11 -40.38441 -63.23788 36967 ft 481 kts 16°
2026-05-06 03:11 -40.32548 -63.19904 36977 ft 481 kts 16°
2026-05-06 03:12 -40.26666 -63.16035 36984 ft 480 kts 16°
2026-05-06 03:12 -40.20776 -63.12168 36975 ft 480 kts 16°
2026-05-06 03:13 -40.14899 -63.08317 36970 ft 480 kts 15°
2026-05-06 03:13 -40.09009 -63.04465 36981 ft 480 kts 15°
2026-05-06 03:14 -40.03130 -63.00627 36991 ft 480 kts 15°
2026-05-06 03:14 -39.97233 -62.96786 36987 ft 480 kts 15°
2026-05-06 03:15 -39.91351 -62.92961 36992 ft 480 kts 15°
2026-05-06 03:15 -39.85465 -62.89140 36988 ft 480 kts 15°
2026-05-06 03:16 -39.79592 -62.85336 36990 ft 480 kts 15°
2026-05-06 03:16 -39.73743 -62.81555 36973 ft 480 kts 15°
2026-05-06 03:17 -39.68823 -62.78379 36962 ft 480 kts 15°
2026-05-06 03:17 -39.62931 -62.74582 36977 ft 480 kts 15°
2026-05-06 03:18 -39.57173 -62.70879 37001 ft 480 kts 15°
2026-05-06 03:18 -39.51271 -62.67090 36988 ft 480 kts 15°
2026-05-06 03:19 -39.45388 -62.63279 36991 ft 481 kts 16°
2026-05-06 03:19 -39.39508 -62.59429 36987 ft 480 kts 16°
2026-05-06 03:20 -39.30695 -62.53674 36994 ft 480 kts 16°
2026-05-06 03:20 -39.24820 -62.49855 36986 ft 481 kts 16°
2026-05-06 03:21 -39.18944 -62.46044 36965 ft 481 kts 16°
2026-05-06 03:21 -39.13047 -62.42225 36973 ft 482 kts 16°
2026-05-06 03:22 -39.07142 -62.38409 36990 ft 483 kts 16°
2026-05-06 03:22 -39.01215 -62.34586 36988 ft 483 kts 16°
2026-05-06 03:23 -38.95294 -62.30772 36951 ft 483 kts 16°
2026-05-06 03:23 -38.89406 -62.26987 36986 ft 484 kts 16°
2026-05-06 03:24 -38.83475 -62.23181 36995 ft 484 kts 16°
2026-05-06 03:24 -38.77563 -62.19394 36989 ft 484 kts 16°
2026-05-06 03:25 -38.71640 -62.15549 36967 ft 489 kts 19°
2026-05-06 03:25 -38.66010 -62.10651 36984 ft 499 kts 26°
2026-05-06 03:26 -38.60490 -62.05488 36982 ft 500 kts 26°
2026-05-06 03:26 -38.54976 -62.00397 36989 ft 499 kts 26°
2026-05-06 03:27 -38.49398 -61.95333 36984 ft 499 kts 25°
2026-05-06 03:27 -38.43800 -61.90288 36951 ft 499 kts 25°
2026-05-06 03:28 -38.38253 -61.85297 36984 ft 499 kts 25°
2026-05-06 03:28 -38.32660 -61.80271 36994 ft 499 kts 25°
2026-05-06 03:29 -38.27070 -61.75254 36992 ft 499 kts 25°
2026-05-06 03:29 -38.21501 -61.70265 36997 ft 499 kts 25°
2026-05-06 03:30 -38.15948 -61.65301 36972 ft 500 kts 25°
2026-05-06 03:30 -38.10346 -61.60302 36989 ft 500 kts 25°
2026-05-06 03:31 -38.04754 -61.55321 37008 ft 500 kts 25°
2026-05-06 03:31 -37.99165 -61.50351 37004 ft 501 kts 25°
2026-05-06 03:32 -37.93539 -61.45362 37002 ft 501 kts 25°
2026-05-06 03:32 -37.87892 -61.40369 36993 ft 501 kts 25°
2026-05-06 03:33 -37.82254 -61.35393 36998 ft 502 kts 25°
2026-05-06 03:33 -37.76602 -61.30411 36990 ft 502 kts 25°
2026-05-06 03:34 -37.70951 -61.25439 37004 ft 503 kts 25°
2026-05-06 03:34 -37.65273 -61.20452 37004 ft 504 kts 25°
2026-05-06 03:35 -37.59660 -61.15532 36996 ft 504 kts 25°
2026-05-06 03:35 -37.53974 -61.10556 37001 ft 505 kts 25°
2026-05-06 03:36 -37.48289 -61.05592 36998 ft 505 kts 25°
2026-05-06 03:36 -37.42581 -61.00617 36995 ft 506 kts 25°
2026-05-06 03:37 -37.36873 -60.95651 37001 ft 506 kts 25°
2026-05-06 03:37 -37.31153 -60.90683 37001 ft 507 kts 25°
2026-05-06 03:38 -37.25438 -60.85730 37001 ft 507 kts 25°
2026-05-06 03:38 -37.19711 -60.80775 36999 ft 507 kts 25°
2026-05-06 03:39 -37.13993 -60.75837 37000 ft 507 kts 25°
2026-05-06 03:39 -37.08340 -60.70965 36968 ft 507 kts 25°
2026-05-06 03:40 -37.02608 -60.66034 36997 ft 507 kts 25°
2026-05-06 03:40 -36.96888 -60.61122 37001 ft 508 kts 25°
2026-05-06 03:41 -36.91135 -60.56192 37005 ft 508 kts 25°
2026-05-06 03:41 -36.85392 -60.51278 37007 ft 509 kts 25°
2026-05-06 03:42 -36.79665 -60.46385 36964 ft 509 kts 25°
2026-05-06 03:42 -36.73906 -60.41475 36999 ft 510 kts 25°
2026-05-06 03:43 -36.68108 -60.36545 37008 ft 512 kts 25°
2026-05-06 03:43 -36.65201 -60.34080 36644 ft 518 kts 25°
2026-05-06 03:43 -36.62266 -60.31592 36101 ft 518 kts 25°
2026-05-06 03:44 -36.59335 -60.29100 35502 ft 514 kts 26°
2026-05-06 03:44 -36.56439 -60.26640 34932 ft 508 kts 26°
2026-05-06 03:44 -36.53593 -60.24226 34531 ft 501 kts 26°
2026-05-06 03:44 -36.50761 -60.21833 34083 ft 500 kts 26°
2026-05-06 03:45 -36.47919 -60.19445 33623 ft 499 kts 26°
2026-05-06 03:45 -36.45075 -60.17066 33144 ft 503 kts 26°
2026-05-06 03:45 -36.42199 -60.14665 32698 ft 508 kts 26°
2026-05-06 03:45 -36.39312 -60.12254 32255 ft 509 kts 27°
2026-05-06 03:46 -36.36407 -60.09824 31802 ft 509 kts 27°
2026-05-06 03:46 -36.33521 -60.07409 31334 ft 508 kts 27°
2026-05-06 03:46 -36.30632 -60.04993 30899 ft 508 kts 27°
2026-05-06 03:46 -36.27749 -60.02585 30452 ft 507 kts 27°
2026-05-06 03:47 -36.24860 -60.00174 29977 ft 507 kts 27°
2026-05-06 03:47 -36.21974 -59.97770 29452 ft 507 kts 27°
2026-05-06 03:47 -36.19092 -59.95371 28956 ft 507 kts 27°
2026-05-06 03:47 -36.16211 -59.92975 28480 ft 506 kts 27°
2026-05-06 03:48 -36.13330 -59.90582 27991 ft 506 kts 27°
2026-05-06 03:48 -36.10442 -59.88185 27487 ft 506 kts 27°
2026-05-06 03:48 -36.07562 -59.85797 27014 ft 507 kts 28°
2026-05-06 03:48 -36.04675 -59.83406 26537 ft 508 kts 28°
2026-05-06 03:49 -36.01809 -59.81034 26069 ft 509 kts 28°
2026-05-06 03:49 -35.98914 -59.78639 25588 ft 509 kts 28°
2026-05-06 03:49 -35.96018 -59.76246 25084 ft 509 kts 28°
2026-05-06 03:49 -35.93084 -59.73822 24598 ft 508 kts 28°
2026-05-06 03:50 -35.90223 -59.71459 24097 ft 500 kts 28°
2026-05-06 03:50 -35.87431 -59.69153 23616 ft 491 kts 28°
2026-05-06 03:50 -35.84646 -59.66856 23066 ft 487 kts 28°
2026-05-06 03:50 -35.81912 -59.64607 22560 ft 483 kts 29°
2026-05-06 03:51 -35.79168 -59.62352 22067 ft 479 kts 29°
2026-05-06 03:51 -35.76435 -59.60109 21583 ft 475 kts 29°
2026-05-06 03:51 -35.73739 -59.57898 21112 ft 472 kts 29°
2026-05-06 03:51 -35.71053 -59.55696 20648 ft 470 kts 29°
2026-05-06 03:52 -35.68378 -59.53505 20168 ft 467 kts 29°
2026-05-06 03:52 -35.65680 -59.51297 19704 ft 465 kts 30°
2026-05-06 03:52 -35.63010 -59.49112 19195 ft 456 kts 30°
2026-05-06 03:52 -35.60383 -59.46962 18573 ft 451 kts 30°
2026-05-06 03:53 -35.57788 -59.44843 17849 ft 446 kts 30°
2026-05-06 03:53 -35.55213 -59.42742 17071 ft 443 kts 30°
2026-05-06 03:53 -35.52656 -59.40658 16350 ft 438 kts 30°
2026-05-06 03:53 -35.50157 -59.38621 15676 ft 433 kts 30°
2026-05-06 03:54 -35.47669 -59.36595 15009 ft 428 kts 30°
2026-05-06 03:54 -35.45198 -59.34588 14349 ft 424 kts 30°
2026-05-06 03:54 -35.42741 -59.32692 13701 ft 419 kts 28°
2026-05-06 03:54 -35.40261 -59.30857 13001 ft 414 kts 28°
2026-05-06 03:55 -35.37800 -59.29057 12394 ft 408 kts 29°
2026-05-06 03:55 -35.35384 -59.27284 11778 ft 402 kts 29°
2026-05-06 03:55 -35.33000 -59.25525 11153 ft 398 kts 30°
2026-05-06 03:55 -35.30647 -59.23780 10541 ft 393 kts 30°
2026-05-06 03:56 -35.28322 -59.22053 10011 ft 387 kts 31°
2026-05-06 03:56 -35.26087 -59.20390 10059 ft 365 kts 31°
2026-05-06 03:56 -35.23991 -59.18831 10080 ft 345 kts 30°
2026-05-06 03:56 -35.21989 -59.17345 10104 ft 327 kts 30°
2026-05-06 03:57 -35.20092 -59.15940 10101 ft 312 kts 30°
2026-05-06 03:57 -35.18227 -59.14688 10108 ft 302 kts 26°
2026-05-06 03:57 -35.16354 -59.13532 10134 ft 302 kts 26°
2026-05-06 03:57 -35.14467 -59.12386 10143 ft 304 kts 26°
2026-05-06 03:58 -35.12565 -59.11229 10122 ft 301 kts 26°
2026-05-06 03:58 -35.10737 -59.10111 10049 ft 291 kts 26°
2026-05-06 03:58 -35.09026 -59.09060 9906 ft 284 kts 26°
2026-05-06 03:58 -35.07218 -59.07946 9592 ft 282 kts 26°
2026-05-06 03:59 -35.05502 -59.06887 9309 ft 280 kts 26°
2026-05-06 03:59 -35.03772 -59.05818 9025 ft 278 kts 27°
2026-05-06 03:59 -35.02050 -59.04754 8740 ft 276 kts 27°
2026-05-06 03:59 -35.00341 -59.03698 8453 ft 275 kts 27°
2026-05-06 04:00 -34.98639 -59.02647 8168 ft 274 kts 27°
2026-05-06 04:00 -34.96944 -59.01600 7869 ft 272 kts 27°
2026-05-06 04:00 -34.95264 -59.00563 7602 ft 271 kts 27°
2026-05-06 04:00 -34.93584 -58.99527 7316 ft 270 kts 27°
2026-05-06 04:01 -34.91911 -58.98496 7038 ft 269 kts 27°
2026-05-06 04:01 -34.90237 -58.97474 6758 ft 268 kts 25°
2026-05-06 04:01 -34.88540 -58.96533 6479 ft 268 kts 24°
2026-05-06 04:01 -34.86835 -58.95617 6177 ft 268 kts 22°
2026-05-06 04:02 -34.85133 -58.94701 5881 ft 267 kts 21°
2026-05-06 04:02 -34.83436 -58.93784 5597 ft 267 kts 22°
2026-05-06 04:02 -34.81746 -58.92865 5367 ft 264 kts 22°
2026-05-06 04:02 -34.80099 -58.91968 5243 ft 257 kts 22°
2026-05-06 04:03 -34.79028 -58.91385 5164 ft 252 kts 22°
2026-05-06 04:03 -34.77526 -58.90400 5032 ft 247 kts 40°
2026-05-06 04:03 -34.76597 -58.88696 4853 ft 245 kts 74°
2026-05-06 04:03 -34.76487 -58.86647 4617 ft 244 kts 97°
2026-05-06 04:04 -34.76782 -58.84613 4367 ft 245 kts 101°
2026-05-06 04:04 -34.77133 -58.82618 4107 ft 245 kts 101°
2026-05-06 04:04 -34.77482 -58.80593 3839 ft 245 kts 101°
2026-05-06 04:04 -34.77819 -58.78569 3587 ft 243 kts 99°
2026-05-06 04:05 -34.78138 -58.76608 3324 ft 232 kts 99°
2026-05-06 04:05 -34.78443 -58.74736 3064 ft 219 kts 101°
2026-05-06 04:05 -34.78790 -58.73004 2905 ft 203 kts 102°
2026-05-06 04:05 -34.79099 -58.71370 2656 ft 194 kts 100°
2026-05-06 04:06 -34.79378 -58.69801 2402 ft 185 kts 99°
2026-05-06 04:06 -34.79639 -58.68311 2175 ft 175 kts 99°
2026-05-06 04:06 -34.79886 -58.66901 1956 ft 165 kts 99°
2026-05-06 04:06 -34.80115 -58.65596 1783 ft 151 kts 99°
2026-05-06 04:07 -34.80332 -58.64354 1554 ft 149 kts 98°
2026-05-06 04:07 -34.80539 -58.63150 1341 ft 143 kts 98°
2026-05-06 04:07 -34.80735 -58.61960 1110 ft 143 kts 98°
2026-05-06 04:07 -34.80935 -58.60781 981 ft 142 kts 99°
2026-05-06 04:08 -34.81146 -58.59615 822 ft 141 kts 99°
2026-05-06 04:08 -34.81353 -58.58454 621 ft 140 kts 99°
2026-05-06 04:08 -34.81547 -58.57300 416 ft 140 kts 101°
2026-05-06 04:08 -34.81762 -58.56121 242 ft 142 kts 101°
2026-05-06 04:09 -34.81974 -58.54948 90 ft 140 kts 101°
2026-05-06 04:09 -34.82167 -58.53889 85 ft 117 kts 101°
2026-05-06 04:09 -34.82297 -58.53153 83 ft 59 kts 102°
2026-05-06 04:09 -34.82336 -58.52924 82 ft 14 kts 88°
2026-05-06 04:10 -34.82263 -58.52898 84 ft 13 kts 344°
2026-05-06 04:10 -34.82178 -58.52927 82 ft 13 kts 344°
2026-05-06 04:10 -34.82094 -58.52956 83 ft 12 kts 344°
2026-05-06 04:10 -34.82007 -58.52987 79 ft 15 kts 344°
2026-05-06 04:11 -34.81869 -58.53033 81 ft 25 kts 345°
2026-05-06 04:11 -34.81681 -58.53099 78 ft 29 kts 343°
2026-05-06 04:11 -34.81495 -58.53164 81 ft 28 kts 343°
2026-05-06 04:11 -34.81318 -58.53225 86 ft 26 kts 344°
2026-05-06 04:12 -34.81226 -58.53258 84 ft 10 kts 338°
2026-05-06 04:12 -34.81178 -58.53317 83 ft 10 kts 294°
2026-05-06 04:12 -34.81167 -58.53410 74 ft 11 kts 274°
2026-05-06 04:12 -34.81162 -58.53497 75 ft 10 kts 275°
2026-05-06 04:13 -34.81113 -58.53547 75 ft 11 kts 344°
2026-05-06 04:13 -34.81068 -58.53584 71 ft 7 kts 283°
2026-05-06 04:13 -34.81086 -58.53641 71 ft 7 kts 252°
2026-05-06 04:13 -34.81095 -58.53680 70 ft 0 kts 253°